Time,TemperatureF,DewpointF,PressureIn,WindDirection,WindDirectionDegrees,WindSpeedMPH,WindSpeedGustMPH,Humidity,HourlyPrecipIn,Conditions,Clouds,dailyrainin,SoftwareType,DateUTC
2013-04-10 00:03:00,50.0,40.0,30.00,North,-999,-999.0,-999.0,67,-99.99,,,-99.99,,2013-04-10 04:03:00,
2013-04-10 00:13:00,49.0,39.0,29.98,North,-999,-999.0,-999.0,69,-99.99,,,-99.99,,2013-04-10 04:13:00,
2013-04-10 00:23:00,49.0,39.0,29.98,North,-999,-999.0,-999.0,69,-99.99,,,-99.99,,2013-04-10 04:23:00,
2013-04-10 00:33:00,49.0,39.0,29.98,North,-999,-999.0,-999.0,68,-99.99,,,-99.99,,2013-04-10 04:33:00,
2013-04-10 00:43:00,48.0,39.0,29.97,North,-999,-999.0,-999.0,70,-99.99,,,-99.99,,2013-04-10 04:43:00,
2013-04-10 00:52:00,48.0,39.0,29.97,North,-999,-999.0,-999.0,70,-99.99,,,-99.99,,2013-04-10 04:52:00,
2013-04-10 01:03:00,48.0,39.0,29.97,North,-999,-999.0,-999.0,71,-99.99,,,-99.99,,2013-04-10 05:03:00,
2013-04-10 01:13:00,47.0,39.0,29.99,North,-999,-999.0,-999.0,72,-99.99,,,-99.99,,2013-04-10 05:13:00,
2013-04-10 01:23:00,47.0,39.0,29.99,North,-999,-999.0,-999.0,72,-99.99,,,-99.99,,2013-04-10 05:23:00,
2013-04-10 01:33:00,47.0,39.0,29.99,North,-999,-999.0,-999.0,71,-99.99,,,-99.99,,2013-04-10 05:33:00,
2013-04-10 01:42:00,47.0,39.0,30.00,North,-999,-999.0,-999.0,72,-99.99,,,-99.99,,2013-04-10 05:42:00,
2013-04-10 01:53:00,47.0,39.0,30.00,North,-999,-999.0,-999.0,72,-99.99,,,-99.99,,2013-04-10 05:53:00,
2013-04-10 02:03:00,48.0,39.0,30.00,North,-999,-999.0,-999.0,69,-99.99,,,-99.99,,2013-04-10 06:03:00,
2013-04-10 02:12:00,47.0,39.0,30.01,North,-999,-999.0,-999.0,72,-99.99,,,-99.99,,2013-04-10 06:12:00,
2013-04-10 02:22:00,47.0,39.0,30.01,North,-999,-999.0,-999.0,72,-99.99,,,-99.99,,2013-04-10 06:22:00,
2013-04-10 02:32:00,49.0,39.0,30.00,North,-999,-999.0,-999.0,70,-99.99,,,-99.99,,2013-04-10 06:32:00,
2013-04-10 02:42:00,47.0,39.0,30.02,North,-999,-999.0,-999.0,75,-99.99,,,-99.99,,2013-04-10 06:42:00,
2013-04-10 02:52:00,47.0,39.0,30.02,North,-999,-999.0,-999.0,75,-99.99,,,-99.99,,2013-04-10 06:52:00,
2013-04-10 03:02:00,46.0,40.0,30.02,North,-999,-999.0,-999.0,77,-99.99,,,-99.99,,2013-04-10 07:02:00,
2013-04-10 03:12:00,46.0,40.0,30.02,North,-999,-999.0,-999.0,78,-99.99,,,-99.99,,2013-04-10 07:12:00,
2013-04-10 03:22:00,46.0,40.0,30.02,North,-999,-999.0,-999.0,78,-99.99,,,-99.99,,2013-04-10 07:22:00,
2013-04-10 03:32:00,45.0,40.0,30.04,North,-999,-999.0,-999.0,82,-99.99,,,-99.99,,2013-04-10 07:32:00,
2013-04-10 03:42:00,45.0,41.0,30.02,North,-999,-999.0,-999.0,84,-99.99,,,-99.99,,2013-04-10 07:42:00,
2013-04-10 03:52:00,45.0,41.0,30.02,North,-999,-999.0,-999.0,84,-99.99,,,-99.99,,2013-04-10 07:52:00,
2013-04-10 04:02:00,45.0,41.0,29.96,North,-999,-999.0,-999.0,85,-99.99,,,-99.99,,2013-04-10 08:02:00,
2013-04-10 04:12:00,45.0,41.0,29.95,North,-999,-999.0,-999.0,86,-99.99,,,-99.99,,2013-04-10 08:12:00,
2013-04-10 04:22:00,45.0,41.0,29.95,North,-999,-999.0,-999.0,86,-99.99,,,-99.99,,2013-04-10 08:22:00,
2013-04-10 04:32:00,45.0,41.0,29.99,North,-999,-999.0,-999.0,86,-99.99,,,-99.99,,2013-04-10 08:32:00,
2013-04-10 04:42:00,45.0,41.0,29.97,North,-999,-999.0,-999.0,86,-99.99,,,-99.99,,2013-04-10 08:42:00,
2013-04-10 04:52:00,45.0,41.0,29.97,North,-999,-999.0,-999.0,86,-99.99,,,-99.99,,2013-04-10 08:52:00,
2013-04-10 05:02:00,45.0,41.0,29.95,North,-999,-999.0,-999.0,86,-99.99,,,-99.99,,2013-04-10 09:02:00,
2013-04-10 05:12:00,45.0,41.0,29.95,North,-999,-999.0,-999.0,86,-99.99,,,-99.99,,2013-04-10 09:12:00,
2013-04-10 05:22:00,45.0,41.0,29.95,North,-999,-999.0,-999.0,86,-99.99,,,-99.99,,2013-04-10 09:22:00,
2013-04-10 05:32:00,45.0,41.0,29.95,North,-999,-999.0,-999.0,85,-99.99,,,-99.99,,2013-04-10 09:32:00,
2013-04-10 05:43:00,45.0,41.0,29.95,North,-999,-999.0,-999.0,86,-99.99,,,-99.99,,2013-04-10 09:43:00,
2013-04-10 05:52:00,45.0,41.0,29.95,North,-999,-999.0,-999.0,86,-99.99,,,-99.99,,2013-04-10 09:52:00,
2013-04-10 06:03:00,45.0,41.0,29.94,North,-999,-999.0,-999.0,86,-99.99,,,-99.99,,2013-04-10 10:03:00,
2013-04-10 06:13:00,45.0,41.0,29.95,North,-999,-999.0,-999.0,86,-99.99,,,-99.99,,2013-04-10 10:13:00,
2013-04-10 06:23:00,45.0,41.0,29.95,North,-999,-999.0,-999.0,86,-99.99,,,-99.99,,2013-04-10 10:23:00,
2013-04-10 06:33:00,45.0,41.0,29.95,North,-999,-999.0,-999.0,86,-99.99,,,-99.99,,2013-04-10 10:33:00,
2013-04-10 06:43:00,45.0,41.0,29.95,North,-999,-999.0,-999.0,86,-99.99,,,-99.99,,2013-04-10 10:43:00,
2013-04-10 06:52:00,45.0,41.0,29.96,North,-999,-999.0,-999.0,87,-99.99,,,-99.99,,2013-04-10 10:52:00,
2013-04-10 07:02:00,45.0,41.0,29.96,North,-999,-999.0,-999.0,87,-99.99,,,-99.99,,2013-04-10 11:02:00,
2013-04-10 07:12:00,45.0,41.0,29.96,North,-999,-999.0,-999.0,87,-99.99,,,-99.99,,2013-04-10 11:12:00,
2013-04-10 07:22:00,45.0,41.0,29.96,North,-999,-999.0,-999.0,87,-99.99,,,-99.99,,2013-04-10 11:22:00,
2013-04-10 07:32:00,45.0,42.0,29.97,North,-999,-999.0,-999.0,88,-99.99,,,-99.99,,2013-04-10 11:32:00,
2013-04-10 07:42:00,45.0,42.0,29.97,North,-999,-999.0,-999.0,88,-99.99,,,-99.99,,2013-04-10 11:42:00,
2013-04-10 07:52:00,45.0,41.0,29.97,North,-999,-999.0,-999.0,88,-99.99,,,-99.99,,2013-04-10 11:52:00,
2013-04-10 08:03:00,45.0,41.0,29.97,North,-999,-999.0,-999.0,88,-99.99,,,-99.99,,2013-04-10 12:03:00,
2013-04-10 08:12:00,45.0,42.0,29.97,North,-999,-999.0,-999.0,88,-99.99,,,-99.99,,2013-04-10 12:12:00,
2013-04-10 08:23:00,45.0,42.0,29.97,North,-999,-999.0,-999.0,88,-99.99,,,-99.99,,2013-04-10 12:23:00,
2013-04-10 08:33:00,45.0,42.0,29.97,North,-999,-999.0,-999.0,88,-99.99,,,-99.99,,2013-04-10 12:33:00,
2013-04-10 08:42:00,46.0,42.0,29.98,North,-999,-999.0,-999.0,88,-99.99,,,-99.99,,2013-04-10 12:42:00,
2013-04-10 08:52:00,46.0,42.0,29.98,North,-999,-999.0,-999.0,88,-99.99,,,-99.99,,2013-04-10 12:52:00,
2013-04-10 09:02:00,46.0,43.0,29.98,North,-999,-999.0,-999.0,87,-99.99,,,-99.99,,2013-04-10 13:02:00,
2013-04-10 09:12:00,46.0,43.0,29.99,North,-999,-999.0,-999.0,87,-99.99,,,-99.99,,2013-04-10 13:12:00,
2013-04-10 09:23:00,46.0,43.0,29.99,North,-999,-999.0,-999.0,87,-99.99,,,-99.99,,2013-04-10 13:23:00,
2013-04-10 09:32:00,47.0,43.0,29.99,North,-999,-999.0,-999.0,86,-99.99,,,-99.99,,2013-04-10 13:32:00,
2013-04-10 09:43:00,47.0,43.0,29.99,North,-999,-999.0,-999.0,84,-99.99,,,-99.99,,2013-04-10 13:43:00,
2013-04-10 09:52:00,47.0,43.0,29.99,North,-999,-999.0,-999.0,84,-99.99,,,-99.99,,2013-04-10 13:52:00,
2013-04-10 10:02:00,47.0,43.0,29.99,North,-999,-999.0,-999.0,83,-99.99,,,-99.99,,2013-04-10 14:02:00,
2013-04-10 10:12:00,48.0,43.0,29.99,North,-999,-999.0,-999.0,80,-99.99,,,-99.99,,2013-04-10 14:12:00,
2013-04-10 10:22:00,48.0,43.0,29.99,North,-999,-999.0,-999.0,80,-99.99,,,-99.99,,2013-04-10 14:22:00,
2013-04-10 10:33:00,50.0,43.0,29.99,North,-999,-999.0,-999.0,75,-99.99,,,-99.99,,2013-04-10 14:33:00,
2013-04-10 10:42:00,52.0,43.0,29.99,North,-999,-999.0,-999.0,71,-99.99,,,-99.99,,2013-04-10 14:42:00,
2013-04-10 10:52:00,52.0,43.0,29.99,North,-999,-999.0,-999.0,71,-99.99,,,-99.99,,2013-04-10 14:52:00,
2013-04-10 11:02:00,51.0,43.0,29.99,North,-999,-999.0,-999.0,72,-99.99,,,-99.99,,2013-04-10 15:02:00,
2013-04-10 11:12:00,51.0,43.0,29.99,North,-999,-999.0,-999.0,73,-99.99,,,-99.99,,2013-04-10 15:12:00,
2013-04-10 11:22:00,51.0,43.0,29.99,North,-999,-999.0,-999.0,73,-99.99,,,-99.99,,2013-04-10 15:22:00,
2013-04-10 11:33:00,52.0,43.0,30.01,North,-999,-999.0,-999.0,70,-99.99,,,-99.99,,2013-04-10 15:33:00,
2013-04-10 11:42:00,52.0,42.0,30.01,North,-999,-999.0,-999.0,68,-99.99,,,-99.99,,2013-04-10 15:42:00,
2013-04-10 11:52:00,52.0,42.0,30.01,North,-999,-999.0,-999.0,68,-99.99,,,-99.99,,2013-04-10 15:52:00,
2013-04-10 12:03:00,52.0,43.0,30.00,North,-999,-999.0,-999.0,70,-99.99,,,-99.99,,2013-04-10 16:03:00,
2013-04-10 12:13:00,52.0,42.0,29.99,North,-999,-999.0,-999.0,69,-99.99,,,-99.99,,2013-04-10 16:13:00,
2013-04-10 12:23:00,52.0,42.0,29.99,North,-999,-999.0,-999.0,69,-99.99,,,-99.99,,2013-04-10 16:23:00,
2013-04-10 12:33:00,53.0,43.0,29.98,North,-999,-999.0,-999.0,66,-99.99,,,-99.99,,2013-04-10 16:33:00,
2013-04-10 12:43:00,54.0,44.0,29.99,North,-999,-999.0,-999.0,67,-99.99,,,-99.99,,2013-04-10 16:43:00,
2013-04-10 12:52:00,54.0,44.0,29.99,North,-999,-999.0,-999.0,67,-99.99,,,-99.99,,2013-04-10 16:52:00,
2013-04-10 13:03:00,55.0,43.0,29.99,North,-999,-999.0,-999.0,65,-99.99,,,-99.99,,2013-04-10 17:03:00,
2013-04-10 13:12:00,55.0,44.0,29.99,North,-999,-999.0,-999.0,64,-99.99,,,-99.99,,2013-04-10 17:12:00,
2013-04-10 13:22:00,55.0,44.0,29.99,North,-999,-999.0,-999.0,64,-99.99,,,-99.99,,2013-04-10 17:22:00,
2013-04-10 13:33:00,57.0,44.0,29.99,North,-999,-999.0,-999.0,61,-99.99,,,-99.99,,2013-04-10 17:33:00,
2013-04-10 13:43:00,56.0,44.0,29.98,North,-999,-999.0,-999.0,61,-99.99,,,-99.99,,2013-04-10 17:43:00,
2013-04-10 13:52:00,56.0,44.0,29.98,North,-999,-999.0,-999.0,61,-99.99,,,-99.99,,2013-04-10 17:52:00,
2013-04-10 14:03:00,59.0,43.0,29.98,North,-999,-999.0,-999.0,55,-99.99,,,-99.99,,2013-04-10 18:03:00,
2013-04-10 14:12:00,59.0,43.0,29.98,North,-999,-999.0,-999.0,55,-99.99,,,-99.99,,2013-04-10 18:12:00,
2013-04-10 14:23:00,59.0,43.0,29.98,North,-999,-999.0,-999.0,55,-99.99,,,-99.99,,2013-04-10 18:23:00,
2013-04-10 14:33:00,59.0,43.0,29.99,North,-999,-999.0,-999.0,55,-99.99,,,-99.99,,2013-04-10 18:33:00,
2013-04-10 14:42:00,59.0,43.0,29.98,North,-999,-999.0,-999.0,54,-99.99,,,-99.99,,2013-04-10 18:42:00,
2013-04-10 14:52:00,59.0,43.0,29.98,North,-999,-999.0,-999.0,54,-99.99,,,-99.99,,2013-04-10 18:52:00,
2013-04-10 15:03:00,60.0,43.0,29.96,North,-999,-999.0,-999.0,53,-99.99,,,-99.99,,2013-04-10 19:03:00,
2013-04-10 15:12:00,59.0,43.0,29.96,North,-999,-999.0,-999.0,55,-99.99,,,-99.99,,2013-04-10 19:12:00,
2013-04-10 15:22:00,59.0,43.0,29.96,North,-999,-999.0,-999.0,55,-99.99,,,-99.99,,2013-04-10 19:22:00,
2013-04-10 15:33:00,59.0,44.0,29.97,North,-999,-999.0,-999.0,56,-99.99,,,-99.99,,2013-04-10 19:33:00,
2013-04-10 15:42:00,61.0,45.0,29.93,North,-999,-999.0,-999.0,56,-99.99,,,-99.99,,2013-04-10 19:42:00,
2013-04-10 15:53:00,61.0,45.0,29.93,North,-999,-999.0,-999.0,56,-99.99,,,-99.99,,2013-04-10 19:53:00,
2013-04-10 16:03:00,62.0,45.0,29.90,North,-999,-999.0,-999.0,53,-99.99,,,-99.99,,2013-04-10 20:03:00,
2013-04-10 16:12:00,62.0,44.0,29.90,North,-999,-999.0,-999.0,51,-99.99,,,-99.99,,2013-04-10 20:12:00,
2013-04-10 16:23:00,62.0,44.0,29.90,North,-999,-999.0,-999.0,51,-99.99,,,-99.99,,2013-04-10 20:23:00,
2013-04-10 16:33:00,60.0,44.0,29.91,North,-999,-999.0,-999.0,55,-99.99,,,-99.99,,2013-04-10 20:33:00,
2013-04-10 16:42:00,61.0,44.0,29.91,North,-999,-999.0,-999.0,53,-99.99,,,-99.99,,2013-04-10 20:42:00,
2013-04-10 16:52:00,61.0,44.0,29.91,North,-999,-999.0,-999.0,53,-99.99,,,-99.99,,2013-04-10 20:52:00,
2013-04-10 17:03:00,60.0,44.0,29.92,North,-999,-999.0,-999.0,55,-99.99,,,-99.99,,2013-04-10 21:03:00,
2013-04-10 17:13:00,59.0,45.0,29.92,North,-999,-999.0,-999.0,58,-99.99,,,-99.99,,2013-04-10 21:13:00,
2013-04-10 17:22:00,59.0,45.0,29.92,North,-999,-999.0,-999.0,58,-99.99,,,-99.99,,2013-04-10 21:22:00,
2013-04-10 17:33:00,60.0,45.0,29.92,North,-999,-999.0,-999.0,55,-99.99,,,-99.99,,2013-04-10 21:33:00,
2013-04-10 17:43:00,59.0,44.0,29.93,North,-999,-999.0,-999.0,57,-99.99,,,-99.99,,2013-04-10 21:43:00,
2013-04-10 17:53:00,59.0,44.0,29.93,North,-999,-999.0,-999.0,57,-99.99,,,-99.99,,2013-04-10 21:53:00,
2013-04-10 18:03:00,59.0,45.0,29.91,North,-999,-999.0,-999.0,58,-99.99,,,-99.99,,2013-04-10 22:03:00,
2013-04-10 18:13:00,60.0,45.0,29.90,North,-999,-999.0,-999.0,56,-99.99,,,-99.99,,2013-04-10 22:13:00,
2013-04-10 18:23:00,60.0,45.0,29.90,North,-999,-999.0,-999.0,56,-99.99,,,-99.99,,2013-04-10 22:23:00,
2013-04-10 18:34:00,60.0,45.0,29.91,North,-999,-999.0,-999.0,57,-99.99,,,-99.99,,2013-04-10 22:34:00,
2013-04-10 18:42:00,59.0,44.0,29.89,North,-999,-999.0,-999.0,57,-99.99,,,-99.99,,2013-04-10 22:42:00,
2013-04-10 18:52:00,59.0,44.0,29.89,North,-999,-999.0,-999.0,57,-99.99,,,-99.99,,2013-04-10 22:52:00,
2013-04-10 19:03:00,58.0,43.0,29.89,North,-999,-999.0,-999.0,57,-99.99,,,-99.99,,2013-04-10 23:03:00,
2013-04-10 19:12:00,57.0,44.0,29.90,North,-999,-999.0,-999.0,62,-99.99,,,-99.99,,2013-04-10 23:12:00,
2013-04-10 19:22:00,57.0,44.0,29.90,North,-999,-999.0,-999.0,62,-99.99,,,-99.99,,2013-04-10 23:22:00,
2013-04-10 19:33:00,55.0,46.0,29.91,North,-999,-999.0,-999.0,71,-99.99,,,-99.99,,2013-04-10 23:33:00,
2013-04-10 19:42:00,53.0,47.0,29.91,North,-999,-999.0,-999.0,78,-99.99,,,-99.99,,2013-04-10 23:42:00,
2013-04-10 19:53:00,53.0,47.0,29.91,North,-999,-999.0,-999.0,78,-99.99,,,-99.99,,2013-04-10 23:53:00,
2013-04-10 20:02:00,51.0,46.0,29.91,North,-999,-999.0,-999.0,80,-99.99,,,-99.99,,2013-04-11 00:02:00,
2013-04-10 20:13:00,51.0,46.0,29.91,North,-999,-999.0,-999.0,80,-99.99,,,-99.99,,2013-04-11 00:13:00,
2013-04-10 20:22:00,51.0,46.0,29.91,North,-999,-999.0,-999.0,80,-99.99,,,-99.99,,2013-04-11 00:22:00,
2013-04-10 20:32:00,51.0,44.0,29.94,North,-999,-999.0,-999.0,78,-99.99,,,-99.99,,2013-04-11 00:32:00,
2013-04-10 20:42:00,49.0,44.0,29.95,North,-999,-999.0,-999.0,82,-99.99,,,-99.99,,2013-04-11 00:42:00,
2013-04-10 20:53:00,49.0,44.0,29.95,North,-999,-999.0,-999.0,82,-99.99,,,-99.99,,2013-04-11 00:53:00,
2013-04-10 21:02:00,49.0,45.0,29.92,North,-999,-999.0,-999.0,85,-99.99,,,-99.99,,2013-04-11 01:02:00,
2013-04-10 21:12:00,49.0,45.0,29.93,North,-999,-999.0,-999.0,84,-99.99,,,-99.99,,2013-04-11 01:12:00,
2013-04-10 21:22:00,49.0,45.0,29.93,North,-999,-999.0,-999.0,84,-99.99,,,-99.99,,2013-04-11 01:22:00,
2013-04-10 21:32:00,49.0,45.0,29.94,North,-999,-999.0,-999.0,85,-99.99,,,-99.99,,2013-04-11 01:32:00,
2013-04-10 21:42:00,49.0,45.0,29.93,North,-999,-999.0,-999.0,85,-99.99,,,-99.99,,2013-04-11 01:42:00,
2013-04-10 21:52:00,49.0,45.0,29.93,North,-999,-999.0,-999.0,85,-99.99,,,-99.99,,2013-04-11 01:52:00,
2013-04-10 22:03:00,49.0,45.0,29.91,North,-999,-999.0,-999.0,85,-99.99,,,-99.99,,2013-04-11 02:03:00,
2013-04-10 22:12:00,49.0,45.0,29.91,North,-999,-999.0,-999.0,85,-99.99,,,-99.99,,2013-04-11 02:12:00,
2013-04-10 22:22:00,49.0,45.0,29.91,North,-999,-999.0,-999.0,85,-99.99,,,-99.99,,2013-04-11 02:22:00,
2013-04-10 22:32:00,49.0,46.0,29.90,North,-999,-999.0,-999.0,86,-99.99,,,-99.99,,2013-04-11 02:32:00,
2013-04-10 22:42:00,49.0,46.0,29.90,North,-999,-999.0,-999.0,86,-99.99,,,-99.99,,2013-04-11 02:42:00,
2013-04-10 22:52:00,49.0,45.0,29.90,North,-999,-999.0,-999.0,85,-99.99,,,-99.99,,2013-04-11 02:52:00,
2013-04-10 23:02:00,49.0,45.0,29.91,North,-999,-999.0,-999.0,85,-99.99,,,-99.99,,2013-04-11 03:02:00,
2013-04-10 23:12:00,50.0,46.0,29.91,North,-999,-999.0,-999.0,86,-99.99,,,-99.99,,2013-04-11 03:12:00,
2013-04-10 23:22:00,50.0,46.0,29.91,North,-999,-999.0,-999.0,86,-99.99,,,-99.99,,2013-04-11 03:22:00,
2013-04-10 23:33:00,48.0,44.0,29.91,North,-999,-999.0,-999.0,84,-99.99,,,-99.99,,2013-04-11 03:33:00,
2013-04-10 23:43:00,48.0,44.0,29.92,North,-999,-999.0,-999.0,86,-99.99,,,-99.99,,2013-04-11 03:43:00,
2013-04-10 23:54:00,48.0,44.0,29.92,North,-999,-999.0,-999.0,86,-99.99,,,-99.99,,2013-04-11 03:54:00,